Change the Weather History Date:

Friday, August 2, 2013

  Actual Average Record
Temperature  
Mean Temperature 62 °F 70 °F  
Max Temperature 81 °F 88 °F 97 °F (1949)
Min Temperature 43 °F 51 °F 37 °F (1937)
Degree Days  
Heating Degree Days 3 0  
Month to date heating degree days 3 0  
Since 1 June heating degree days 124 186  
Since 1 July heating degree days 3 21  
Cooling Degree Days 0 5  
Month to date cooling degree days 3 10  
Year to date cooling degree days 269 166  
Since 1 June cooling degree days 267 164  
Growing Degree Days 12 (Base 50)    
Moisture  
Dew Point 33 °F    
Average Humidity 47    
Maximum Humidity 83    
Minimum Humidity 10    
Precipitation  
Precipitation 0.00 in 0.03 in 0.43 in (2004)
Month to date precipitation T 0.05  
Year to date precipitation 2.28 6.65  
Sea Level Pressure  
Sea Level Pressure 29.91 in    
Wind  
Wind Speed 5 mph (NNW)    
Max Wind Speed 17 mph    
Max Gust Speed 23 mph    
Visibility 9 miles    
Events      
T = Trace of Precipitation, MM = Missing Value Source: NWS Daily Summary

Daily Weather History Graph

Daily Weather History Graph

Search for Another Location

Airport or City:

Trip Planner

Search our weather history database for the weather conditions in past years. The results will help you decide how hot, cold, wet, or windy it might be!

Date:

Astronomy

Aug. 02, 2013 Rise Set
Actual Time 6:25 AM MDT 9:00 PM MDT
Civil Twilight 5:51 AM MDT 9:33 PM MDT
Nautical Twilight 5:10 AM MDT 10:14 PM MDT
Astronomical Twilight 4:22 AM MDT 11:02 PM MDT
Moon 2:47 AM MDT (8/2) 6:02 PM MDT (8/2)
Length of Visible Light 15h 41m
Length of Day
14h 35m
Waning Crescent, 15% of the Moon is Illuminated
Aug 2
Waning Crescent
Aug 6
New
Aug 14
First Quarter
Aug 20
Full
Aug 28
Last Quarter

Hourly Weather History & Observations

Time (MDT) Temp. Windchill Dew Point Humidity Pressure Visibility Wind Dir Wind Speed Gust Speed Precip Events Conditions
12:55 AM 53.1 °F - 44.1 °F 71% 29.85 in 10.0 mi Calm Calm - N/A   Clear
1:55 AM 50.0 °F - 43.0 °F 77% 29.86 in 10.0 mi Calm Calm - N/A   Clear
2:55 AM 50.0 °F - 43.0 °F 77% 29.88 in 10.0 mi Calm Calm - N/A   Clear
3:55 AM 52.0 °F - 42.1 °F 69% 29.90 in 10.0 mi Calm Calm - N/A   Clear
4:55 AM 46.0 °F 43.1 °F 41.0 °F 83% 29.93 in 10.0 mi West 5.8 mph - N/A   Clear
5:55 AM 44.1 °F - 39.0 °F 82% 29.96 in 8.0 mi Calm Calm - N/A   Clear
6:55 AM 43.0 °F - 37.9 °F 82% 29.99 in 6.0 mi Calm Calm - N/A   Haze
7:55 AM 46.9 °F - 41.0 °F 80% 30.00 in 6.0 mi SE 3.5 mph - N/A   Haze
8:55 AM 53.1 °F - 41.0 °F 64% 30.00 in 7.0 mi Calm Calm - N/A   Clear
9:55 AM 59.0 °F - 43.0 °F 55% 29.98 in 7.0 mi Calm Calm - N/A   Clear
10:55 AM 64.0 °F - 42.1 °F 45% 29.96 in 10.0 mi ESE 3.5 mph - N/A   Clear
11:55 AM 69.1 °F - 30.9 °F 24% 29.93 in 5.0 mi Variable 4.6 mph - N/A   Haze
12:55 PM 73.0 °F - 28.9 °F 20% 29.91 in 7.0 mi NNE 6.9 mph - N/A   Partly Cloudy
1:55 PM 75.0 °F - 25.0 °F 16% 29.88 in 10.0 mi Variable 4.6 mph - N/A   Clear
2:40 PM 78.8 °F - 23.0 °F 13% 30.02 in 2.0 mi ENE 3.5 mph - N/A   Haze
2:55 PM 78.1 °F - 24.1 °F 14% 29.86 in 10.0 mi NE 6.9 mph - N/A   Partly Cloudy
3:55 PM 77.0 °F - 28.0 °F 17% 29.85 in 8.0 mi NE 4.6 mph - N/A   Clear
4:55 PM 80.1 °F - 25.0 °F 13% 29.84 in 10.0 mi North 9.2 mph - N/A   Clear
5:55 PM 80.1 °F - 19.0 °F 10% 29.84 in 10.0 mi West 12.7 mph 18.4 mph N/A   Clear
6:55 PM 79.0 °F - 19.9 °F 11% 29.85 in 10.0 mi West 11.5 mph 23.0 mph N/A   Clear
7:55 PM 75.9 °F - 21.0 °F 13% 29.85 in 10.0 mi WNW 10.4 mph - N/A   Clear
8:55 PM 64.0 °F - 32.0 °F 30% 29.90 in 10.0 mi NNW 4.6 mph - N/A   Clear
9:55 PM 63.0 °F - 26.1 °F 25% 29.92 in 10.0 mi WNW 5.8 mph - N/A   Clear
10:55 PM 57.9 °F - 32.0 °F 37% 29.94 in 10.0 mi NW 4.6 mph - N/A   Clear
11:55 PM 60.1 °F - 33.1 °F 36% 29.94 in 10.0 mi NNW 6.9 mph - N/A   Clear